Edward Bodden Airfield


Codes: MWCL/LYB
Name: Edward Bodden Airfield
City: Little Cayman
Country: Cayman Islands
Elevation: 3 ft.
Wikipedia:

Photos at Edward Bodden Airfield


   Photos courtesy of SpottingLog. You can add your own sightings and photos by signing up for a free trial today.



No photos found.

Weather at Edward Bodden Airfield


Time (UTC)DescriptionTempratureWindCloud coverageVisibilityPressureHumidity
23-May-2024 21:00Clear Sky28°C11 mph, NE4%10000m1013hPa70%
24-May-2024 00:00Clear Sky28°C7 mph, NE2%10000m1013hPa68%
24-May-2024 03:00Clear Sky28°C9 mph, NE0%10000m1014hPa67%
24-May-2024 06:00Clear Sky28°C11 mph, NE0%10000m1012hPa69%
24-May-2024 09:00Clear Sky28°C9 mph, NE0%10000m1011hPa68%
24-May-2024 12:00Clear Sky28°C9 mph, E0%10000m1013hPa69%
24-May-2024 15:00Clear Sky28°C9 mph, E1%10000m1013hPa71%
24-May-2024 18:00Clear Sky28°C11 mph, E6%10000m1013hPa71%
24-May-2024 21:00Clear Sky28°C9 mph, NE2%10000m1012hPa70%
25-May-2024 00:00Clear Sky28°C7 mph, NE1%10000m1012hPa69%
25-May-2024 03:00Clear Sky28°C4 mph, E0%10000m1013hPa68%
25-May-2024 06:00Clear Sky28°C9 mph, E0%10000m1012hPa70%
25-May-2024 09:00Clear Sky28°C9 mph, E0%10000m1012hPa72%
25-May-2024 12:00Clear Sky28°C7 mph, E0%10000m1013hPa73%
25-May-2024 15:00Clear Sky28°C7 mph, E3%10000m1014hPa72%
25-May-2024 18:00Clear Sky28°C7 mph, E1%10000m1013hPa71%
25-May-2024 21:00Clear Sky29°C7 mph, SE0%10000m1012hPa69%
26-May-2024 00:00Clear Sky28°C7 mph, E0%10000m1013hPa70%
26-May-2024 03:00Clear Sky28°C4 mph, SE0%10000m1014hPa72%
26-May-2024 06:00Clear Sky28°C9 mph, SE0%10000m1013hPa73%
26-May-2024 09:00Clear Sky28°C9 mph, E1%10000m1012hPa74%
26-May-2024 12:00Clear Sky28°C9 mph, E3%10000m1014hPa75%
26-May-2024 15:00Clear Sky28°C11 mph, E0%10000m1015hPa74%
26-May-2024 18:00Clear Sky29°C11 mph, SE1%10000m1014hPa75%
26-May-2024 21:00Few Clouds29°C11 mph, E13%10000m1013hPa73%
27-May-2024 00:00Clear Sky29°C9 mph, E7%10000m1014hPa75%
27-May-2024 03:00Clear Sky29°C11 mph, SE0%10000m1015hPa76%
27-May-2024 06:00Clear Sky28°C11 mph, E0%10000m1014hPa78%
27-May-2024 09:00Clear Sky28°C9 mph, E2%10000m1013hPa77%
27-May-2024 12:00Clear Sky28°C11 mph, E3%10000m1015hPa77%
27-May-2024 15:00Clear Sky29°C13 mph, SE1%10000m1015hPa77%
27-May-2024 18:00Clear Sky29°C11 mph, E2%10000m1015hPa74%
27-May-2024 21:00Clear Sky29°C9 mph, E5%10000m1014hPa73%
28-May-2024 00:00Clear Sky29°C7 mph, E3%10000m1014hPa74%
28-May-2024 03:00Clear Sky29°C9 mph, SE0%10000m1016hPa76%
28-May-2024 06:00Light Rain29°C13 mph, E0%10000m1015hPa71%
28-May-2024 09:00Clear Sky29°C13 mph, E0%10000m1014hPa71%
28-May-2024 12:00Clear Sky28°C11 mph, SE0%10000m1015hPa73%
28-May-2024 15:00Clear Sky29°C7 mph, SE0%10000m1016hPa70%
28-May-2024 18:00Clear Sky29°C7 mph, E0%10000m1016hPa67%